Time,TemperatureF,DewpointF,PressureIn,WindDirection,WindDirectionDegrees,WindSpeedMPH,WindSpeedGustMPH,Humidity,HourlyPrecipIn,Conditions,Clouds,dailyrainin,SoftwareType,DateUTC
2013-06-05 00:01:00,73.9,70.5,29.99,SW,225,0.0,0.0,89,0.00,,,0.00,WeatherCatV1.15B25,2013-06-05 04:01:00,
2013-06-05 00:06:00,73.9,70.5,29.99,SW,225,0.0,0.0,89,0.00,,,0.00,WeatherCatV1.15B25,2013-06-05 04:06:00,
2013-06-05 00:11:00,73.8,70.4,30.00,SW,225,0.0,0.0,89,0.00,,,0.00,WeatherCatV1.15B25,2013-06-05 04:11:00,
2013-06-05 00:16:00,73.8,70.4,29.99,SW,225,0.0,0.0,89,0.00,,,0.00,WeatherCatV1.15B25,2013-06-05 04:16:00,
2013-06-05 00:21:00,73.8,70.4,29.99,SW,225,0.0,0.0,89,0.00,,,0.00,WeatherCatV1.15B25,2013-06-05 04:21:00,
2013-06-05 00:26:00,73.6,70.2,29.99,SW,225,0.0,0.0,89,0.00,,,0.00,WeatherCatV1.15B25,2013-06-05 04:26:00,
2013-06-05 00:31:00,73.6,70.2,29.99,SSW,202,0.0,0.0,89,0.00,,,0.00,WeatherCatV1.15B25,2013-06-05 04:31:00,
2013-06-05 00:36:00,73.6,70.2,29.99,SW,225,0.0,0.0,89,0.00,,,0.00,WeatherCatV1.15B25,2013-06-05 04:36:00,
2013-06-05 00:41:00,73.6,70.2,29.98,SSW,202,0.0,0.0,89,0.00,,,0.00,WeatherCatV1.15B25,2013-06-05 04:41:00,
2013-06-05 00:46:00,73.4,70.0,29.98,SW,225,0.0,0.0,89,0.00,,,0.00,WeatherCatV1.15B25,2013-06-05 04:46:00,
2013-06-05 00:51:00,73.4,70.0,29.98,SW,225,0.0,0.0,89,0.00,,,0.00,WeatherCatV1.15B25,2013-06-05 04:51:00,
2013-06-05 00:56:00,73.4,70.0,29.98,SW,225,0.0,0.0,89,0.00,,,0.00,WeatherCatV1.15B25,2013-06-05 04:56:00,
2013-06-05 01:01:00,73.2,69.8,29.98,SW,225,0.0,0.0,89,0.00,,,0.00,WeatherCatV1.15B25,2013-06-05 05:01:00,
2013-06-05 01:06:00,73.2,70.2,29.98,SW,225,0.0,0.0,90,0.00,,,0.00,WeatherCatV1.15B25,2013-06-05 05:06:00,
2013-06-05 01:11:00,73.2,70.2,29.98,West,270,0.0,0.0,90,0.00,,,0.00,WeatherCatV1.15B25,2013-06-05 05:11:00,
2013-06-05 01:16:00,73.2,70.2,29.97,SW,225,0.0,0.0,90,0.00,,,0.00,WeatherCatV1.15B25,2013-06-05 05:16:00,
2013-06-05 01:21:00,73.2,70.2,29.97,SW,225,0.0,0.0,90,0.00,,,0.00,WeatherCatV1.15B25,2013-06-05 05:21:00,
2013-06-05 01:26:00,73.2,70.2,29.97,SW,225,0.0,0.0,90,0.00,,,0.00,WeatherCatV1.15B25,2013-06-05 05:26:00,
2013-06-05 01:31:00,73.2,70.2,29.97,WSW,247,0.0,0.0,90,0.00,,,0.00,WeatherCatV1.15B25,2013-06-05 05:31:00,
2013-06-05 01:36:00,73.2,70.2,29.97,WSW,247,0.0,0.0,90,0.00,,,0.00,WeatherCatV1.15B25,2013-06-05 05:36:00,
2013-06-05 01:41:00,73.2,70.2,29.96,SW,225,0.0,0.0,90,0.00,,,0.00,WeatherCatV1.15B25,2013-06-05 05:41:00,
2013-06-05 01:46:00,73.2,70.2,29.97,SW,225,0.0,0.0,90,0.00,,,0.00,WeatherCatV1.15B25,2013-06-05 05:46:00,
2013-06-05 01:51:00,73.2,70.2,29.97,South,180,0.0,0.0,90,0.00,,,0.00,WeatherCatV1.15B25,2013-06-05 05:51:00,
2013-06-05 01:56:00,73.2,70.2,29.97,SW,225,0.0,0.0,90,0.00,,,0.00,WeatherCatV1.15B25,2013-06-05 05:56:00,
2013-06-05 02:01:00,73.2,70.2,29.97,SW,225,0.0,0.0,90,0.00,,,0.00,WeatherCatV1.15B25,2013-06-05 06:01:00,
2013-06-05 02:06:00,73.0,70.0,29.97,SW,225,0.0,0.0,90,0.00,,,0.00,WeatherCatV1.15B25,2013-06-05 06:06:00,
2013-06-05 02:11:00,73.0,70.0,29.96,WSW,247,0.0,0.0,90,0.00,,,0.00,WeatherCatV1.15B25,2013-06-05 06:11:00,
2013-06-05 02:16:00,73.0,70.0,29.97,SW,225,0.0,0.0,90,0.00,,,0.00,WeatherCatV1.15B25,2013-06-05 06:16:00,
2013-06-05 02:21:00,73.0,70.0,29.96,SW,225,0.0,0.0,90,0.00,,,0.00,WeatherCatV1.15B25,2013-06-05 06:21:00,
2013-06-05 02:26:00,73.0,70.0,29.96,SW,225,0.0,0.0,90,0.00,,,0.00,WeatherCatV1.15B25,2013-06-05 06:26:00,
2013-06-05 02:31:00,73.0,70.0,29.97,SW,225,0.0,0.0,90,0.00,,,0.00,WeatherCatV1.15B25,2013-06-05 06:31:00,
2013-06-05 02:36:00,73.0,70.0,29.97,SW,225,0.0,0.0,90,0.00,,,0.00,WeatherCatV1.15B25,2013-06-05 06:36:00,
2013-06-05 02:41:00,72.9,69.8,29.97,SW,225,0.0,0.0,90,0.00,,,0.00,WeatherCatV1.15B25,2013-06-05 06:41:00,
2013-06-05 02:46:00,72.7,69.6,29.96,SW,225,0.0,0.0,90,0.00,,,0.00,WeatherCatV1.15B25,2013-06-05 06:46:00,
2013-06-05 02:51:00,72.9,69.8,29.96,SW,225,0.0,0.0,90,0.00,,,0.00,WeatherCatV1.15B25,2013-06-05 06:51:00,
2013-06-05 02:56:00,72.7,69.6,29.96,SW,225,0.0,0.0,90,0.00,,,0.00,WeatherCatV1.15B25,2013-06-05 06:56:00,
2013-06-05 03:10:00,72.7,69.6,29.96,SW,225,0.0,0.0,90,0.00,,,0.00,WeatherCatV1.15B25,2013-06-05 07:10:00,
2013-06-05 03:15:00,72.7,69.6,29.97,SW,225,0.0,0.0,90,0.00,,,0.00,WeatherCatV1.15B25,2013-06-05 07:15:00,
2013-06-05 03:20:00,72.7,69.6,29.97,SW,225,0.0,0.0,90,0.00,,,0.00,WeatherCatV1.15B25,2013-06-05 07:20:00,
2013-06-05 03:25:00,72.7,69.6,29.96,SW,225,0.0,0.0,90,0.00,,,0.00,WeatherCatV1.15B25,2013-06-05 07:25:00,
2013-06-05 03:30:00,72.7,69.6,29.97,WNW,292,0.0,0.0,90,0.00,,,0.00,WeatherCatV1.15B25,2013-06-05 07:30:00,
2013-06-05 03:35:00,72.7,69.6,29.96,West,270,0.0,0.0,90,0.00,,,0.00,WeatherCatV1.15B25,2013-06-05 07:35:00,
2013-06-05 03:40:00,72.7,69.6,29.96,West,270,0.0,0.0,90,0.00,,,0.00,WeatherCatV1.15B25,2013-06-05 07:40:00,
2013-06-05 03:45:00,72.7,69.6,29.97,WNW,292,0.0,0.0,90,0.00,,,0.00,WeatherCatV1.15B25,2013-06-05 07:45:00,
2013-06-05 03:50:00,72.7,69.6,29.96,North,0,0.0,0.0,90,0.00,,,0.00,WeatherCatV1.15B25,2013-06-05 07:50:00,
2013-06-05 03:55:00,72.7,69.6,29.96,NE,45,0.0,0.0,90,0.00,,,0.00,WeatherCatV1.15B25,2013-06-05 07:55:00,
2013-06-05 04:00:00,72.5,69.4,29.96,NNE,22,0.0,0.0,90,0.00,,,0.00,WeatherCatV1.15B25,2013-06-05 08:00:00,
2013-06-05 04:10:00,-999.0,69.4,29.96,NNE,22,0.0,0.0,90,0.00,,,0.00,WeatherCatV1.15B25,2013-06-05 08:10:00,
2013-06-05 04:15:00,72.5,69.4,29.96,NW,315,0.0,0.0,90,0.00,,,0.00,WeatherCatV1.15B25,2013-06-05 08:15:00,
2013-06-05 04:20:00,72.5,69.4,29.96,NW,315,0.0,0.0,90,0.00,,,0.00,WeatherCatV1.15B25,2013-06-05 08:20:00,
2013-06-05 04:25:00,72.5,69.4,29.96,NW,315,0.0,0.0,90,0.00,,,0.00,WeatherCatV1.15B25,2013-06-05 08:25:00,
2013-06-05 04:30:00,72.3,69.3,29.97,NW,315,0.0,0.0,90,0.00,,,0.00,WeatherCatV1.15B25,2013-06-05 08:30:00,
2013-06-05 04:35:00,72.5,69.4,29.97,NW,315,0.0,0.0,90,0.00,,,0.00,WeatherCatV1.15B25,2013-06-05 08:35:00,
2013-06-05 04:40:00,72.5,69.4,29.97,NW,315,0.0,0.0,90,0.00,,,0.00,WeatherCatV1.15B25,2013-06-05 08:40:00,
2013-06-05 04:45:00,72.5,69.4,29.97,North,0,0.0,0.0,90,0.00,,,0.00,WeatherCatV1.15B25,2013-06-05 08:45:00,
2013-06-05 04:50:00,72.3,69.3,29.98,North,0,0.0,0.0,90,0.00,,,0.00,WeatherCatV1.15B25,2013-06-05 08:50:00,
2013-06-05 04:55:00,72.3,69.3,29.98,NNW,337,0.0,0.0,90,0.00,,,0.00,WeatherCatV1.15B25,2013-06-05 08:55:00,
2013-06-05 05:00:00,72.3,69.3,29.98,NW,315,0.0,0.0,90,0.00,,,0.00,WeatherCatV1.15B25,2013-06-05 09:00:00,
2013-06-05 05:05:00,72.5,69.4,29.98,NNW,337,0.0,0.0,90,0.00,,,0.00,WeatherCatV1.15B25,2013-06-05 09:05:00,
2013-06-05 05:10:00,72.5,69.4,29.98,NNW,337,0.0,0.0,90,0.00,,,0.00,WeatherCatV1.15B25,2013-06-05 09:10:00,
2013-06-05 05:15:00,72.5,69.4,29.98,NNW,337,0.0,0.0,90,0.00,,,0.00,WeatherCatV1.15B25,2013-06-05 09:15:00,
2013-06-05 05:20:00,72.5,69.4,29.98,NNW,337,0.0,0.0,90,0.00,,,0.00,WeatherCatV1.15B25,2013-06-05 09:20:00,
2013-06-05 05:25:00,72.5,69.4,29.98,NNW,337,0.0,0.0,90,0.00,,,0.00,WeatherCatV1.15B25,2013-06-05 09:25:00,
2013-06-05 05:30:00,72.5,69.4,29.99,NNW,337,0.0,0.0,90,0.00,,,0.00,WeatherCatV1.15B25,2013-06-05 09:30:00,
2013-06-05 05:31:00,72.5,69.4,29.99,NW,315,0.0,0.0,90,0.00,,,0.00,WeatherCatV1.15B25,2013-06-05 09:31:00,
2013-06-05 05:36:00,72.5,69.4,29.99,West,270,0.0,0.0,90,0.00,,,0.00,WeatherCatV1.15B25,2013-06-05 09:36:00,
2013-06-05 05:41:00,72.5,69.4,29.99,West,270,0.0,0.0,90,0.00,,,0.00,WeatherCatV1.15B25,2013-06-05 09:41:00,
2013-06-05 05:46:00,72.5,69.4,29.99,West,270,0.0,0.0,90,0.00,,,0.00,WeatherCatV1.15B25,2013-06-05 09:46:00,
2013-06-05 05:51:00,72.5,69.4,29.99,West,270,0.0,0.0,90,0.00,,,0.00,WeatherCatV1.15B25,2013-06-05 09:51:00,
2013-06-05 05:56:00,72.5,69.4,29.99,West,270,0.0,0.0,90,0.00,,,0.00,WeatherCatV1.15B25,2013-06-05 09:56:00,
2013-06-05 06:01:00,72.5,69.4,29.99,West,270,0.0,0.0,90,0.00,,,0.00,WeatherCatV1.15B25,2013-06-05 10:01:00,
2013-06-05 06:06:00,72.5,69.4,29.99,West,270,0.0,0.0,90,0.00,,,0.00,WeatherCatV1.15B25,2013-06-05 10:06:00,
2013-06-05 06:11:00,72.5,69.4,30.00,West,270,0.0,0.0,90,0.00,,,0.00,WeatherCatV1.15B25,2013-06-05 10:11:00,
2013-06-05 06:16:00,72.5,69.4,30.00,West,270,0.0,0.0,90,0.00,,,0.00,WeatherCatV1.15B25,2013-06-05 10:16:00,
2013-06-05 06:21:00,72.5,69.4,30.00,West,270,0.0,0.0,90,0.00,,,0.00,WeatherCatV1.15B25,2013-06-05 10:21:00,
2013-06-05 06:26:00,72.5,69.4,30.00,West,270,0.0,0.0,90,0.00,,,0.00,WeatherCatV1.15B25,2013-06-05 10:26:00,
2013-06-05 06:31:00,72.5,69.4,30.00,West,270,0.0,0.0,90,0.00,,,0.00,WeatherCatV1.15B25,2013-06-05 10:31:00,
2013-06-05 06:36:00,72.5,69.4,30.00,West,270,0.0,0.0,90,0.00,,,0.00,WeatherCatV1.15B25,2013-06-05 10:36:00,
2013-06-05 06:41:00,72.5,69.4,30.00,West,270,0.0,0.0,90,0.00,,,0.00,WeatherCatV1.15B25,2013-06-05 10:41:00,
2013-06-05 06:46:00,72.5,69.4,30.01,West,270,0.0,0.0,90,0.00,,,0.00,WeatherCatV1.15B25,2013-06-05 10:46:00,
2013-06-05 06:51:00,72.5,69.4,30.01,West,270,0.0,0.0,90,0.00,,,0.00,WeatherCatV1.15B25,2013-06-05 10:51:00,
2013-06-05 06:56:00,72.5,69.4,30.00,West,270,0.0,0.0,90,0.00,,,0.00,WeatherCatV1.15B25,2013-06-05 10:56:00,
2013-06-05 07:01:00,72.5,69.4,30.01,West,270,0.0,0.0,90,0.00,,,0.00,WeatherCatV1.15B25,2013-06-05 11:01:00,
2013-06-05 07:06:00,72.5,69.4,30.01,West,270,0.0,0.0,90,0.00,,,0.00,WeatherCatV1.15B25,2013-06-05 11:06:00,
2013-06-05 07:11:00,72.5,69.4,30.01,West,270,0.0,0.0,90,0.00,,,0.00,WeatherCatV1.15B25,2013-06-05 11:11:00,
2013-06-05 07:16:00,72.5,69.4,30.01,West,270,0.0,0.0,90,0.00,,,0.00,WeatherCatV1.15B25,2013-06-05 11:16:00,
2013-06-05 07:21:00,72.5,69.4,30.01,West,270,0.0,0.0,90,0.00,,,0.00,WeatherCatV1.15B25,2013-06-05 11:21:00,
2013-06-05 07:26:00,72.5,69.4,30.01,West,270,0.0,0.0,90,0.00,,,0.00,WeatherCatV1.15B25,2013-06-05 11:26:00,
2013-06-05 07:31:00,72.5,69.4,30.01,West,270,0.0,0.0,90,0.00,,,0.00,WeatherCatV1.15B25,2013-06-05 11:31:00,
2013-06-05 07:36:00,72.7,69.9,30.01,West,270,0.0,0.0,91,0.00,,,0.00,WeatherCatV1.15B25,2013-06-05 11:36:00,
2013-06-05 07:41:00,72.7,69.6,30.01,West,270,0.0,0.0,90,0.00,,,0.00,WeatherCatV1.15B25,2013-06-05 11:41:00,
2013-06-05 07:46:00,72.7,69.6,30.01,West,270,0.0,0.0,90,0.00,,,0.00,WeatherCatV1.15B25,2013-06-05 11:46:00,
2013-06-05 07:51:00,73.0,70.3,30.01,WSW,247,0.0,0.0,91,0.00,,,0.00,WeatherCatV1.15B25,2013-06-05 11:51:00,
2013-06-05 07:56:00,73.0,70.0,30.01,WSW,247,0.0,0.0,90,0.00,,,0.00,WeatherCatV1.15B25,2013-06-05 11:56:00,
2013-06-05 08:01:00,73.0,70.3,30.01,WSW,247,0.0,0.0,91,0.00,,,0.00,WeatherCatV1.15B25,2013-06-05 12:01:00,
2013-06-05 08:06:00,73.0,70.0,30.01,WSW,247,0.0,0.0,90,0.00,,,0.00,WeatherCatV1.15B25,2013-06-05 12:06:00,
2013-06-05 08:12:00,73.0,70.0,30.01,WSW,247,0.0,0.0,90,0.00,,,0.00,WeatherCatV1.15B25,2013-06-05 12:12:00,
2013-06-05 08:17:00,73.0,70.0,30.01,WSW,247,0.0,0.0,90,0.00,,,0.00,WeatherCatV1.15B25,2013-06-05 12:17:00,
2013-06-05 08:22:00,73.0,70.0,30.01,WSW,247,0.0,0.0,90,0.00,,,0.00,WeatherCatV1.15B25,2013-06-05 12:22:00,
2013-06-05 08:27:00,73.0,70.0,30.01,WSW,247,0.0,0.0,90,0.00,,,0.00,WeatherCatV1.15B25,2013-06-05 12:27:00,
2013-06-05 08:32:00,73.0,70.0,30.01,WSW,247,0.0,0.0,90,0.00,,,0.00,WeatherCatV1.15B25,2013-06-05 12:32:00,
2013-06-05 08:36:00,73.0,70.0,30.02,SW,225,0.0,0.0,90,0.00,,,0.00,WeatherCatV1.15B25,2013-06-05 12:36:00,
2013-06-05 08:41:00,72.9,69.8,30.01,SW,225,0.0,0.0,90,0.02,,,0.02,WeatherCatV1.15B25,2013-06-05 12:41:00,
2013-06-05 08:46:00,72.9,69.8,30.02,SW,225,0.0,0.0,90,0.02,,,0.02,WeatherCatV1.15B25,2013-06-05 12:46:00,
2013-06-05 08:51:00,72.9,70.1,30.02,SW,225,0.0,0.0,91,0.02,,,0.02,WeatherCatV1.15B25,2013-06-05 12:51:00,
2013-06-05 08:57:00,73.0,70.3,30.02,SW,225,0.0,0.0,91,0.02,,,0.02,WeatherCatV1.15B25,2013-06-05 12:57:00,
2013-06-05 09:02:00,72.9,70.1,30.03,SW,225,0.0,0.0,91,0.02,,,0.02,WeatherCatV1.15B25,2013-06-05 13:02:00,
2013-06-05 09:07:00,73.0,70.3,30.03,SW,225,0.0,0.0,91,0.02,,,0.02,WeatherCatV1.15B25,2013-06-05 13:07:00,
2013-06-05 09:12:00,73.0,70.3,30.03,SSW,202,0.0,0.0,91,0.02,,,0.02,WeatherCatV1.15B25,2013-06-05 13:12:00,
2013-06-05 09:17:00,73.0,70.3,30.03,SSW,202,0.0,0.0,91,0.02,,,0.02,WeatherCatV1.15B25,2013-06-05 13:17:00,
2013-06-05 09:22:00,73.0,70.0,30.03,SSW,202,0.0,0.0,90,0.02,,,0.02,WeatherCatV1.15B25,2013-06-05 13:22:00,
2013-06-05 09:27:00,73.0,70.0,30.03,SSW,202,0.0,0.0,90,0.02,,,0.02,WeatherCatV1.15B25,2013-06-05 13:27:00,
2013-06-05 09:32:00,73.2,70.5,30.03,SSW,202,0.0,0.0,91,0.02,,,0.02,WeatherCatV1.15B25,2013-06-05 13:32:00,
2013-06-05 09:37:00,73.0,70.3,30.02,SSW,202,0.0,0.0,91,0.00,,,0.02,WeatherCatV1.15B25,2013-06-05 13:37:00,
2013-06-05 09:42:00,73.2,70.5,30.02,SSW,202,0.0,0.0,91,0.00,,,0.02,WeatherCatV1.15B25,2013-06-05 13:42:00,
2013-06-05 09:47:00,73.2,70.5,30.02,SSW,202,0.0,0.0,91,0.00,,,0.02,WeatherCatV1.15B25,2013-06-05 13:47:00,
2013-06-05 09:52:00,73.2,70.5,30.02,SSW,202,0.0,0.0,91,0.00,,,0.02,WeatherCatV1.15B25,2013-06-05 13:52:00,
2013-06-05 09:56:00,73.4,70.3,30.02,SSW,202,0.0,0.0,90,0.00,,,0.02,WeatherCatV1.15B25,2013-06-05 13:56:00,
2013-06-05 10:02:00,73.4,70.6,30.02,SSW,202,0.0,0.0,91,0.00,,,0.02,WeatherCatV1.15B25,2013-06-05 14:02:00,
2013-06-05 10:07:00,73.6,70.8,30.02,SSW,202,0.0,0.0,91,0.00,,,0.02,WeatherCatV1.15B25,2013-06-05 14:07:00,
2013-06-05 10:12:00,73.8,70.7,30.02,SSW,202,0.0,0.0,90,0.00,,,0.02,WeatherCatV1.15B25,2013-06-05 14:12:00,
2013-06-05 10:17:00,73.8,70.7,30.02,SSW,202,0.0,0.0,90,0.00,,,0.02,WeatherCatV1.15B25,2013-06-05 14:17:00,
2013-06-05 10:22:00,73.9,70.9,30.02,SSW,202,0.0,0.0,90,0.00,,,0.02,WeatherCatV1.15B25,2013-06-05 14:22:00,
2013-06-05 10:27:00,73.9,70.9,30.02,SSW,202,0.0,0.0,90,0.00,,,0.02,WeatherCatV1.15B25,2013-06-05 14:27:00,
2013-06-05 10:32:00,73.9,70.9,30.01,SSW,202,0.0,0.0,90,0.00,,,0.02,WeatherCatV1.15B25,2013-06-05 14:32:00,
2013-06-05 10:37:00,73.9,70.9,30.02,SSW,202,0.0,0.0,90,0.00,,,0.02,WeatherCatV1.15B25,2013-06-05 14:37:00,
2013-06-05 10:42:00,73.9,70.9,30.02,SSW,202,0.0,0.0,90,0.00,,,0.02,WeatherCatV1.15B25,2013-06-05 14:42:00,
2013-06-05 10:47:00,73.9,70.9,30.02,SSW,202,0.0,0.0,90,0.00,,,0.02,WeatherCatV1.15B25,2013-06-05 14:47:00,
2013-06-05 10:52:00,74.1,71.1,30.02,SSW,202,0.0,0.0,90,0.00,,,0.02,WeatherCatV1.15B25,2013-06-05 14:52:00,
2013-06-05 10:57:00,74.1,71.1,30.02,SSW,202,0.0,0.0,90,0.00,,,0.02,WeatherCatV1.15B25,2013-06-05 14:57:00,
2013-06-05 11:02:00,74.3,71.2,30.03,SSW,202,0.0,0.0,90,0.00,,,0.02,WeatherCatV1.15B25,2013-06-05 15:02:00,
2013-06-05 11:07:00,74.5,71.4,30.02,SSW,202,0.0,0.0,90,0.00,,,0.02,WeatherCatV1.15B25,2013-06-05 15:07:00,
2013-06-05 11:12:00,74.5,71.4,30.03,SSW,202,0.0,0.0,90,0.00,,,0.02,WeatherCatV1.15B25,2013-06-05 15:12:00,
2013-06-05 11:17:00,74.5,71.4,30.03,SSW,202,0.0,0.0,90,0.00,,,0.02,WeatherCatV1.15B25,2013-06-05 15:17:00,
2013-06-05 11:22:00,74.8,71.8,30.03,South,180,0.0,0.0,90,0.00,,,0.02,WeatherCatV1.15B25,2013-06-05 15:22:00,
2013-06-05 11:27:00,74.8,71.8,30.03,South,180,0.0,0.0,90,0.00,,,0.02,WeatherCatV1.15B25,2013-06-05 15:27:00,
2013-06-05 11:32:00,75.0,72.0,30.03,South,180,0.0,0.0,90,0.00,,,0.02,WeatherCatV1.15B25,2013-06-05 15:32:00,
2013-06-05 11:37:00,75.0,72.0,30.03,South,180,0.0,0.0,90,0.00,,,0.02,WeatherCatV1.15B25,2013-06-05 15:37:00,
2013-06-05 11:42:00,75.2,72.1,30.03,SSW,202,0.0,0.0,90,0.00,,,0.02,WeatherCatV1.15B25,2013-06-05 15:42:00,
2013-06-05 11:47:00,75.4,72.3,30.03,SSW,202,0.0,0.0,90,0.00,,,0.02,WeatherCatV1.15B25,2013-06-05 15:47:00,
2013-06-05 11:52:00,75.6,72.5,30.03,SW,225,0.0,0.0,90,0.00,,,0.02,WeatherCatV1.15B25,2013-06-05 15:52:00,
2013-06-05 11:57:00,75.6,72.5,30.03,SSW,202,0.0,0.0,90,0.00,,,0.02,WeatherCatV1.15B25,2013-06-05 15:57:00,
2013-06-05 12:02:00,75.7,72.7,30.03,SSW,202,0.0,0.0,90,0.00,,,0.02,WeatherCatV1.15B25,2013-06-05 16:02:00,
2013-06-05 12:07:00,75.6,72.5,30.03,SW,225,0.0,0.0,90,0.00,,,0.02,WeatherCatV1.15B25,2013-06-05 16:07:00,
2013-06-05 12:12:00,75.6,72.5,30.03,SSW,202,0.0,0.0,90,0.00,,,0.02,WeatherCatV1.15B25,2013-06-05 16:12:00,
2013-06-05 12:17:00,75.6,72.5,30.03,SW,225,0.0,0.0,90,0.00,,,0.02,WeatherCatV1.15B25,2013-06-05 16:17:00,
2013-06-05 12:22:00,75.4,72.0,30.03,SSW,202,0.0,0.0,89,0.00,,,0.02,WeatherCatV1.15B25,2013-06-05 16:22:00,
2013-06-05 12:27:00,75.2,71.8,30.03,SSW,202,0.0,0.0,89,0.00,,,0.02,WeatherCatV1.15B25,2013-06-05 16:27:00,
2013-06-05 12:32:00,75.0,71.6,30.03,SW,225,0.0,0.0,89,0.00,,,0.02,WeatherCatV1.15B25,2013-06-05 16:32:00,
2013-06-05 12:37:00,74.8,71.4,30.02,SW,225,0.0,0.0,89,0.00,,,0.02,WeatherCatV1.15B25,2013-06-05 16:37:00,
2013-06-05 12:42:00,74.7,71.3,30.03,SW,225,0.0,0.0,89,0.00,,,0.02,WeatherCatV1.15B25,2013-06-05 16:42:00,
2013-06-05 12:47:00,74.5,71.1,30.02,SW,225,0.0,0.0,89,0.00,,,0.02,WeatherCatV1.15B25,2013-06-05 16:47:00,
2013-06-05 12:52:00,74.3,70.9,30.02,SW,225,0.0,0.0,89,0.00,,,0.02,WeatherCatV1.15B25,2013-06-05 16:52:00,
2013-06-05 12:57:00,74.1,70.7,30.02,SW,225,0.0,0.0,89,0.00,,,0.02,WeatherCatV1.15B25,2013-06-05 16:57:00,
2013-06-05 13:02:00,74.1,70.7,30.02,SW,225,0.0,0.0,89,0.00,,,0.02,WeatherCatV1.15B25,2013-06-05 17:02:00,
2013-06-05 13:07:00,74.1,70.7,30.01,West,270,0.0,0.0,89,0.02,,,0.04,WeatherCatV1.15B25,2013-06-05 17:07:00,
2013-06-05 13:12:00,74.1,70.7,30.01,WSW,247,0.0,0.0,89,0.02,,,0.04,WeatherCatV1.15B25,2013-06-05 17:12:00,
2013-06-05 13:17:00,74.1,70.7,30.01,NW,315,0.9,0.9,89,0.04,,,0.06,WeatherCatV1.15B25,2013-06-05 17:17:00,
2013-06-05 13:22:00,74.1,70.7,30.01,NW,315,2.7,2.7,89,0.06,,,0.06,WeatherCatV1.15B25,2013-06-05 17:22:00,
2013-06-05 13:27:00,74.1,70.7,30.00,NW,315,1.8,1.8,89,0.06,,,0.08,WeatherCatV1.15B25,2013-06-05 17:27:00,
2013-06-05 13:32:00,74.3,70.9,29.99,NW,315,0.0,0.0,89,0.08,,,0.10,WeatherCatV1.15B25,2013-06-05 17:32:00,
2013-06-05 13:37:00,74.7,71.3,30.00,WNW,292,0.0,0.0,89,0.08,,,0.10,WeatherCatV1.15B25,2013-06-05 17:37:00,
2013-06-05 13:42:00,74.8,71.4,29.99,WNW,292,0.0,0.0,89,0.08,,,0.10,WeatherCatV1.15B25,2013-06-05 17:42:00,
2013-06-05 13:47:00,75.0,71.6,29.99,NW,315,0.0,0.0,89,0.08,,,0.10,WeatherCatV1.15B25,2013-06-05 17:47:00,
2013-06-05 13:52:00,75.4,72.0,29.98,West,270,0.0,0.0,89,0.08,,,0.10,WeatherCatV1.15B25,2013-06-05 17:52:00,
2013-06-05 13:57:00,75.6,72.1,29.98,NNW,337,0.0,0.0,89,0.10,,,0.10,WeatherCatV1.15B25,2013-06-05 17:57:00,
2013-06-05 14:02:00,76.3,72.9,29.98,WNW,292,0.0,0.0,89,0.10,,,0.12,WeatherCatV1.15B25,2013-06-05 18:02:00,
2013-06-05 14:07:00,76.8,73.4,29.97,NW,315,0.0,0.0,89,0.08,,,0.12,WeatherCatV1.15B25,2013-06-05 18:07:00,
2013-06-05 14:12:00,77.2,73.8,29.98,North,0,1.3,1.3,89,0.08,,,0.12,WeatherCatV1.15B25,2013-06-05 18:12:00,
2013-06-05 14:17:00,77.5,74.1,29.98,NNW,337,0.0,0.0,89,0.06,,,0.12,WeatherCatV1.15B25,2013-06-05 18:17:00,
2013-06-05 14:22:00,78.1,74.3,29.97,NNW,337,0.0,0.0,88,0.04,,,0.12,WeatherCatV1.15B25,2013-06-05 18:22:00,
2013-06-05 14:27:00,78.4,74.7,29.97,North,0,0.0,0.0,88,0.04,,,0.12,WeatherCatV1.15B25,2013-06-05 18:27:00,
2013-06-05 14:32:00,78.6,74.8,29.97,NW,315,0.0,0.0,88,0.02,,,0.12,WeatherCatV1.15B25,2013-06-05 18:32:00,
2013-06-05 14:37:00,79.3,75.1,29.97,WNW,292,0.0,0.0,87,0.02,,,0.12,WeatherCatV1.15B25,2013-06-05 18:37:00,
2013-06-05 14:42:00,79.3,75.1,29.97,WNW,292,0.0,0.0,87,0.02,,,0.12,WeatherCatV1.15B25,2013-06-05 18:42:00,
2013-06-05 14:47:00,79.3,74.8,29.96,WNW,292,0.0,0.0,86,0.02,,,0.12,WeatherCatV1.15B25,2013-06-05 18:47:00,
2013-06-05 14:52:00,79.2,74.6,29.97,WNW,292,0.0,0.0,86,0.00,,,0.12,WeatherCatV1.15B25,2013-06-05 18:52:00,
2013-06-05 14:57:00,79.2,74.6,29.97,WNW,292,0.0,0.0,86,0.00,,,0.12,WeatherCatV1.15B25,2013-06-05 18:57:00,
2013-06-05 15:02:00,79.3,74.8,29.97,WNW,292,0.0,0.0,86,0.00,,,0.12,WeatherCatV1.15B25,2013-06-05 19:02:00,
2013-06-05 15:07:00,79.5,75.0,29.97,WNW,292,0.0,0.0,86,0.00,,,0.12,WeatherCatV1.15B25,2013-06-05 19:07:00,
2013-06-05 15:12:00,79.3,74.8,29.97,WNW,292,0.0,0.0,86,0.00,,,0.12,WeatherCatV1.15B25,2013-06-05 19:12:00,
2013-06-05 15:17:00,79.3,74.4,29.97,West,270,0.0,0.0,85,0.00,,,0.12,WeatherCatV1.15B25,2013-06-05 19:17:00,
2013-06-05 15:22:00,79.2,74.3,29.97,West,270,0.0,0.0,85,0.00,,,0.12,WeatherCatV1.15B25,2013-06-05 19:22:00,
2013-06-05 15:27:00,79.0,74.1,29.97,SW,225,0.0,0.0,85,0.00,,,0.12,WeatherCatV1.15B25,2013-06-05 19:27:00,
2013-06-05 15:32:00,79.0,74.1,29.97,SSW,202,0.0,0.0,85,0.00,,,0.12,WeatherCatV1.15B25,2013-06-05 19:32:00,
2013-06-05 15:37:00,79.0,74.1,29.97,SSW,202,0.0,0.0,85,0.00,,,0.12,WeatherCatV1.15B25,2013-06-05 19:37:00,
2013-06-05 15:42:00,79.0,74.5,29.97,SSW,202,0.0,0.0,86,0.00,,,0.12,WeatherCatV1.15B25,2013-06-05 19:42:00,
2013-06-05 15:47:00,78.6,74.1,29.97,SSW,202,0.0,0.0,86,0.00,,,0.12,WeatherCatV1.15B25,2013-06-05 19:47:00,
2013-06-05 15:52:00,78.4,73.9,29.97,SSW,202,0.0,0.0,86,0.00,,,0.12,WeatherCatV1.15B25,2013-06-05 19:52:00,
2013-06-05 15:57:00,78.4,73.9,29.97,SSW,202,0.0,0.0,86,0.00,,,0.12,WeatherCatV1.15B25,2013-06-05 19:57:00,
2013-06-05 16:02:00,78.1,73.6,29.97,SSW,202,0.0,0.0,86,0.00,,,0.12,WeatherCatV1.15B25,2013-06-05 20:02:00,
2013-06-05 16:07:00,78.1,73.6,29.98,SSW,202,0.0,0.0,86,0.00,,,0.12,WeatherCatV1.15B25,2013-06-05 20:07:00,
2013-06-05 16:12:00,77.7,73.2,29.98,WSW,247,0.0,0.0,86,0.00,,,0.12,WeatherCatV1.15B25,2013-06-05 20:12:00,
2013-06-05 16:17:00,77.5,73.0,29.97,SSW,202,0.0,0.0,86,0.00,,,0.12,WeatherCatV1.15B25,2013-06-05 20:17:00,
2013-06-05 16:22:00,77.4,73.2,29.98,SSW,202,0.0,0.0,87,0.00,,,0.12,WeatherCatV1.15B25,2013-06-05 20:22:00,
2013-06-05 16:27:00,77.2,73.0,29.98,SW,225,0.0,0.0,87,0.00,,,0.12,WeatherCatV1.15B25,2013-06-05 20:27:00,
2013-06-05 16:32:00,76.8,72.7,29.98,SW,225,0.0,0.0,87,0.00,,,0.12,WeatherCatV1.15B25,2013-06-05 20:32:00,
2013-06-05 16:37:00,76.6,72.5,29.97,SW,225,0.0,0.0,87,0.00,,,0.12,WeatherCatV1.15B25,2013-06-05 20:37:00,
2013-06-05 16:42:00,76.5,72.3,29.98,SW,225,0.0,0.0,87,0.00,,,0.12,WeatherCatV1.15B25,2013-06-05 20:42:00,
2013-06-05 16:47:00,76.3,72.2,29.98,SW,225,0.0,0.0,87,0.00,,,0.12,WeatherCatV1.15B25,2013-06-05 20:47:00,
2013-06-05 16:52:00,76.1,72.0,29.98,SW,225,0.0,0.0,87,0.00,,,0.12,WeatherCatV1.15B25,2013-06-05 20:52:00,
2013-06-05 16:57:00,75.9,72.2,29.97,SW,225,0.0,0.0,88,0.00,,,0.12,WeatherCatV1.15B25,2013-06-05 20:57:00,
2013-06-05 17:02:00,75.7,72.0,29.97,SW,225,0.0,0.0,88,0.00,,,0.12,WeatherCatV1.15B25,2013-06-05 21:02:00,
2013-06-05 17:07:00,75.7,72.0,29.97,SSW,202,0.0,0.0,88,0.00,,,0.12,WeatherCatV1.15B25,2013-06-05 21:07:00,
2013-06-05 17:12:00,75.6,71.8,29.97,SSW,202,0.0,0.0,88,0.00,,,0.12,WeatherCatV1.15B25,2013-06-05 21:12:00,
2013-06-05 17:17:00,75.4,71.6,29.97,SSW,202,0.0,0.0,88,0.00,,,0.12,WeatherCatV1.15B25,2013-06-05 21:17:00,
2013-06-05 17:22:00,75.4,71.6,29.97,SW,225,0.0,0.0,88,0.00,,,0.12,WeatherCatV1.15B25,2013-06-05 21:22:00,
2013-06-05 17:27:00,75.4,71.6,29.97,SSW,202,0.0,0.0,88,0.00,,,0.12,WeatherCatV1.15B25,2013-06-05 21:27:00,
2013-06-05 17:32:00,75.4,71.6,29.96,SSW,202,0.0,0.0,88,0.00,,,0.12,WeatherCatV1.15B25,2013-06-05 21:32:00,
2013-06-05 17:37:00,75.0,71.3,29.96,SSW,202,0.0,0.0,88,0.00,,,0.12,WeatherCatV1.15B25,2013-06-05 21:37:00,
2013-06-05 17:42:00,75.4,72.0,29.96,SSW,202,0.0,0.0,89,0.00,,,0.12,WeatherCatV1.15B25,2013-06-05 21:42:00,
2013-06-05 17:47:00,75.4,72.0,29.96,SSW,202,0.0,0.0,89,0.00,,,0.12,WeatherCatV1.15B25,2013-06-05 21:47:00,
2013-06-05 17:52:00,75.4,72.0,29.95,SSW,202,0.0,0.0,89,0.00,,,0.12,WeatherCatV1.15B25,2013-06-05 21:52:00,
2013-06-05 17:57:00,75.4,72.0,29.95,SSW,202,0.0,0.0,89,0.00,,,0.12,WeatherCatV1.15B25,2013-06-05 21:57:00,
2013-06-05 18:02:00,75.4,72.0,29.96,SW,225,0.0,0.0,89,0.00,,,0.12,WeatherCatV1.15B25,2013-06-05 22:02:00,
2013-06-05 18:07:00,75.4,72.0,29.95,SW,225,0.0,0.0,89,0.00,,,0.12,WeatherCatV1.15B25,2013-06-05 22:07:00,
2013-06-05 18:12:00,75.4,72.0,29.95,West,270,0.0,0.0,89,0.00,,,0.12,WeatherCatV1.15B25,2013-06-05 22:12:00,
2013-06-05 18:17:00,75.4,72.0,29.95,WSW,247,0.0,0.0,89,0.00,,,0.12,WeatherCatV1.15B25,2013-06-05 22:17:00,
2013-06-05 18:22:00,75.4,72.0,29.95,WSW,247,0.0,0.0,89,0.00,,,0.12,WeatherCatV1.15B25,2013-06-05 22:22:00,
2013-06-05 18:27:00,75.4,72.0,29.95,SSW,202,0.0,0.0,89,0.00,,,0.12,WeatherCatV1.15B25,2013-06-05 22:27:00,
2013-06-05 18:32:00,75.2,71.8,29.95,SSW,202,0.0,0.0,89,0.00,,,0.12,WeatherCatV1.15B25,2013-06-05 22:32:00,
2013-06-05 18:37:00,75.2,71.8,29.94,SSW,202,0.0,0.0,89,0.00,,,0.12,WeatherCatV1.15B25,2013-06-05 22:37:00,
2013-06-05 18:42:00,75.0,71.6,29.94,NW,315,0.0,0.0,89,0.00,,,0.12,WeatherCatV1.15B25,2013-06-05 22:42:00,
2013-06-05 18:47:00,75.2,71.8,29.95,WNW,292,0.0,0.0,89,0.00,,,0.12,WeatherCatV1.15B25,2013-06-05 22:47:00,
2013-06-05 18:52:00,75.2,71.8,29.95,WNW,292,0.9,0.9,89,0.00,,,0.12,WeatherCatV1.15B25,2013-06-05 22:52:00,
2013-06-05 18:57:00,75.2,71.8,29.94,WSW,247,0.0,0.0,89,0.00,,,0.12,WeatherCatV1.15B25,2013-06-05 22:57:00,
2013-06-05 19:02:00,75.0,71.6,29.94,SW,225,0.0,0.0,89,0.00,,,0.12,WeatherCatV1.15B25,2013-06-05 23:02:00,
2013-06-05 19:07:00,75.0,71.6,29.94,SW,225,0.0,0.0,89,0.00,,,0.12,WeatherCatV1.15B25,2013-06-05 23:07:00,
2013-06-05 19:12:00,75.0,71.6,29.94,WSW,247,0.0,0.0,89,0.00,,,0.12,WeatherCatV1.15B25,2013-06-05 23:12:00,
2013-06-05 19:17:00,74.8,71.4,29.94,WSW,247,0.0,0.0,89,0.00,,,0.12,WeatherCatV1.15B25,2013-06-05 23:17:00,
2013-06-05 19:22:00,74.8,71.4,29.94,WSW,247,0.0,0.0,89,0.00,,,0.12,WeatherCatV1.15B25,2013-06-05 23:22:00,
2013-06-05 19:27:00,74.7,71.3,29.95,SW,225,0.0,0.0,89,0.00,,,0.12,WeatherCatV1.15B25,2013-06-05 23:27:00,
2013-06-05 19:32:00,74.5,71.1,29.94,SW,225,0.0,0.0,89,0.00,,,0.12,WeatherCatV1.15B25,2013-06-05 23:32:00,
2013-06-05 19:37:00,74.5,71.1,29.95,SW,225,0.0,0.0,89,0.00,,,0.12,WeatherCatV1.15B25,2013-06-05 23:37:00,
2013-06-05 19:42:00,74.3,70.9,29.95,SW,225,0.0,0.0,89,0.00,,,0.12,WeatherCatV1.15B25,2013-06-05 23:42:00,
2013-06-05 19:47:00,74.3,70.9,29.95,SW,225,0.0,0.0,89,0.00,,,0.12,WeatherCatV1.15B25,2013-06-05 23:47:00,
2013-06-05 19:52:00,74.1,70.7,29.95,SW,225,0.0,0.0,89,0.00,,,0.12,WeatherCatV1.15B25,2013-06-05 23:52:00,
2013-06-05 19:57:00,74.1,70.7,29.95,SW,225,0.0,0.0,89,0.00,,,0.12,WeatherCatV1.15B25,2013-06-05 23:57:00,
2013-06-05 20:02:00,74.1,70.7,29.94,SW,225,0.0,0.0,89,0.00,,,0.12,WeatherCatV1.15B25,2013-06-06 00:02:00,
2013-06-05 20:07:00,73.9,70.5,29.95,SW,225,0.0,0.0,89,0.00,,,0.12,WeatherCatV1.15B25,2013-06-06 00:07:00,
2013-06-05 20:12:00,73.9,70.5,29.94,SSW,202,0.0,0.0,89,0.00,,,0.12,WeatherCatV1.15B25,2013-06-06 00:12:00,
2013-06-05 20:17:00,73.8,70.4,29.94,SW,225,0.0,0.0,89,0.00,,,0.12,WeatherCatV1.15B25,2013-06-06 00:17:00,
2013-06-05 20:22:00,73.8,70.4,29.94,SW,225,0.0,0.0,89,0.00,,,0.12,WeatherCatV1.15B25,2013-06-06 00:22:00,
2013-06-05 20:27:00,73.6,70.2,29.94,SW,225,0.0,0.0,89,0.00,,,0.12,WeatherCatV1.15B25,2013-06-06 00:27:00,
2013-06-05 20:32:00,73.6,70.2,29.94,SW,225,0.0,0.0,89,0.00,,,0.12,WeatherCatV1.15B25,2013-06-06 00:32:00,
2013-06-05 20:37:00,73.6,70.2,29.93,SW,225,0.0,0.0,89,0.00,,,0.12,WeatherCatV1.15B25,2013-06-06 00:37:00,
2013-06-05 20:42:00,73.6,70.2,29.94,SW,225,0.0,0.0,89,0.00,,,0.12,WeatherCatV1.15B25,2013-06-06 00:42:00,
2013-06-05 20:47:00,73.6,70.5,29.94,SW,225,0.0,0.0,90,0.00,,,0.12,WeatherCatV1.15B25,2013-06-06 00:47:00,
2013-06-05 20:52:00,73.6,70.5,29.94,SW,225,0.0,0.0,90,0.00,,,0.12,WeatherCatV1.15B25,2013-06-06 00:52:00,
2013-06-05 20:57:00,73.4,70.3,29.93,SW,225,0.0,0.0,90,0.00,,,0.12,WeatherCatV1.15B25,2013-06-06 00:57:00,
2013-06-05 21:02:00,73.4,70.3,29.93,SW,225,0.0,0.0,90,0.00,,,0.12,WeatherCatV1.15B25,2013-06-06 01:02:00,
2013-06-05 21:07:00,73.2,70.2,29.93,SW,225,0.0,0.0,90,0.00,,,0.12,WeatherCatV1.15B25,2013-06-06 01:07:00,
2013-06-05 21:12:00,73.4,70.3,29.93,SW,225,0.0,0.0,90,0.00,,,0.12,WeatherCatV1.15B25,2013-06-06 01:12:00,
2013-06-05 21:17:00,73.2,70.2,29.93,SW,225,0.0,0.0,90,0.00,,,0.12,WeatherCatV1.15B25,2013-06-06 01:17:00,
2013-06-05 21:22:00,73.2,70.2,29.94,SW,225,0.0,0.0,90,0.00,,,0.12,WeatherCatV1.15B25,2013-06-06 01:22:00,
2013-06-05 21:27:00,73.2,70.2,29.94,SW,225,0.0,0.0,90,0.00,,,0.12,WeatherCatV1.15B25,2013-06-06 01:27:00,
2013-06-05 21:32:00,73.2,70.2,29.94,SW,225,0.0,0.0,90,0.00,,,0.12,WeatherCatV1.15B25,2013-06-06 01:32:00,
2013-06-05 21:37:00,73.2,70.2,29.94,SW,225,0.0,0.0,90,0.00,,,0.12,WeatherCatV1.15B25,2013-06-06 01:37:00,
2013-06-05 21:42:00,73.2,70.2,29.94,SW,225,0.0,0.0,90,0.00,,,0.12,WeatherCatV1.15B25,2013-06-06 01:42:00,
2013-06-05 21:47:00,73.2,70.2,29.94,SW,225,0.0,0.0,90,0.00,,,0.12,WeatherCatV1.15B25,2013-06-06 01:47:00,
2013-06-05 21:52:00,73.2,70.2,29.94,SW,225,0.0,0.0,90,0.00,,,0.12,WeatherCatV1.15B25,2013-06-06 01:52:00,
2013-06-05 21:57:00,73.2,70.2,29.94,SW,225,0.0,0.0,90,0.00,,,0.12,WeatherCatV1.15B25,2013-06-06 01:57:00,
2013-06-05 22:02:00,73.2,70.2,29.94,SW,225,0.0,0.0,90,0.00,,,0.12,WeatherCatV1.15B25,2013-06-06 02:02:00,
2013-06-05 22:07:00,73.2,70.2,29.94,SW,225,0.0,0.0,90,0.00,,,0.12,WeatherCatV1.15B25,2013-06-06 02:07:00,
2013-06-05 22:12:00,73.2,70.2,29.94,SW,225,0.0,0.0,90,0.00,,,0.12,WeatherCatV1.15B25,2013-06-06 02:12:00,
2013-06-05 22:17:00,73.2,70.2,29.94,SW,225,0.0,0.0,90,0.00,,,0.12,WeatherCatV1.15B25,2013-06-06 02:17:00,
2013-06-05 22:22:00,73.2,70.2,29.94,SW,225,0.0,0.0,90,0.00,,,0.12,WeatherCatV1.15B25,2013-06-06 02:22:00,
2013-06-05 22:27:00,73.2,70.2,29.94,SW,225,0.0,0.0,90,0.00,,,0.12,WeatherCatV1.15B25,2013-06-06 02:27:00,
2013-06-05 22:32:00,73.2,70.2,29.94,SW,225,0.0,0.0,90,0.00,,,0.12,WeatherCatV1.15B25,2013-06-06 02:32:00,
2013-06-05 22:37:00,73.2,70.2,29.94,SW,225,0.0,0.0,90,0.00,,,0.12,WeatherCatV1.15B25,2013-06-06 02:37:00,
2013-06-05 22:42:00,73.2,70.2,29.94,SW,225,0.0,0.0,90,0.00,,,0.12,WeatherCatV1.15B25,2013-06-06 02:42:00,
2013-06-05 22:47:00,73.0,70.0,29.94,SW,225,0.0,0.0,90,0.00,,,0.12,WeatherCatV1.15B25,2013-06-06 02:47:00,
2013-06-05 22:52:00,73.0,70.0,29.94,SW,225,0.0,0.0,90,0.00,,,0.12,WeatherCatV1.15B25,2013-06-06 02:52:00,
2013-06-05 22:57:00,73.0,70.0,29.94,SW,225,0.0,0.0,90,0.00,,,0.12,WeatherCatV1.15B25,2013-06-06 02:57:00,
2013-06-05 23:02:00,72.9,69.8,29.95,SW,225,0.0,0.0,90,0.00,,,0.12,WeatherCatV1.15B25,2013-06-06 03:02:00,
2013-06-05 23:07:00,72.7,69.6,29.94,SW,225,0.0,0.0,90,0.00,,,0.12,WeatherCatV1.15B25,2013-06-06 03:07:00,
2013-06-05 23:12:00,72.7,69.6,29.94,SW,225,0.0,0.0,90,0.00,,,0.12,WeatherCatV1.15B25,2013-06-06 03:12:00,
2013-06-05 23:17:00,72.7,69.6,29.94,SW,225,0.0,0.0,90,0.00,,,0.12,WeatherCatV1.15B25,2013-06-06 03:17:00,
2013-06-05 23:22:00,72.7,69.6,29.94,SW,225,0.0,0.0,90,0.00,,,0.12,WeatherCatV1.15B25,2013-06-06 03:22:00,
2013-06-05 23:27:00,72.7,69.6,29.95,SW,225,0.0,0.0,90,0.00,,,0.12,WeatherCatV1.15B25,2013-06-06 03:27:00,
2013-06-05 23:32:00,72.5,69.4,29.94,SW,225,0.0,0.0,90,0.00,,,0.12,WeatherCatV1.15B25,2013-06-06 03:32:00,
2013-06-05 23:37:00,72.5,69.4,29.95,SW,225,0.0,0.0,90,0.00,,,0.12,WeatherCatV1.15B25,2013-06-06 03:37:00,
2013-06-05 23:42:00,72.5,69.4,29.95,SW,225,0.0,0.0,90,0.00,,,0.12,WeatherCatV1.15B25,2013-06-06 03:42:00,
2013-06-05 23:47:00,72.5,69.4,29.94,SW,225,0.0,0.0,90,0.00,,,0.12,WeatherCatV1.15B25,2013-06-06 03:47:00,
2013-06-05 23:52:00,72.5,69.4,29.94,SW,225,0.0,0.0,90,0.00,,,0.12,WeatherCatV1.15B25,2013-06-06 03:52:00,
2013-06-05 23:57:00,72.3,69.3,29.94,SW,225,0.0,0.0,90,0.00,,,0.12,WeatherCatV1.15B25,2013-06-06 03:57:00,